Content
SEND FEEDBACK

Daily
Averages
Monthly
Summary
United States of America

STATEN ISLAND, NEW YORK


Home > North America > United States > New York
Elevation: 46 meters     Latitude: 40 35N     Longitude: 074 09W

WEATHER
 
SELECT A DAY
Number of Records: 189,442;   Date Range: 1/1/95 - 7/7/14
 
SHARE

PRINT THIS DATA

[ ← Previous Day ]
WEATHER ALMANAC - 10 FEBRUARY, 2013
[ Next Day → ]
[ °F ]   °C
Weather ElementAverageHighLow
Temperature-2.8 °C1.7 °C (2:51 pm)-8.9 °C (5:51 am)
Dewpoint-11 °C-5.6 °C (11:51 pm)-13.9 °C (1:51 am)
Humidity54.9 %71 % (5:51 am)37 % (3:51 pm)
Barometer1029.8 hPa1032.5 hPa (10:51 am)1027.4 hPa (10:51 pm)
Wind Speed6.6 km/h16.7 km/h (2:51 am)
Weather ElementAverage
Visibility16.1 km
Wind DirectionSSW (187.4 °)

Weather ElementTotal
Precipitation---
Heating Degree Days21.9 (Base 18.3)
Averaged from 23 records on 10 February, 2013
WEATHER CONDITIONS BREAKOUT
WIND DIRECTION BREAKOUT
WEATHER BY HOUR - 10 FEBRUARY, 2013
[ °F ]   °C
Local TimeTemperatureDewpointHumidityBarometerVisibilityWind DirectionWind SpeedGust SpeedPrecipitationEventsConditions
1:51 AM-7.2 °C-13.9 °C59 %1028.4 hPa16.1 kmNW (310°)14.8 km/hClear
2:51 AM-7.2 °C-13.9 °C59 %1028.8 hPa16.1 kmNW (310°)16.7 km/hClear
3:51 AM-7.2 °C-13.9 °C59 %1028.8 hPa16.1 kmNNW (330°)11.1 km/hClear
4:51 AM-8.3 °C-13.3 °C68 %1029.1 hPa16.1 kmWSW (250°)7.4 km/hClear
5:51 AM-8.9 °C-13.3 °C71 %1029.8 hPa16.1 kmWNW (290°)9.3 km/hClear
6:51 AM-8.9 °C-13.9 °C68 %1030.1 hPa16.1 kmNorth (350°)7.4 km/hPartly Cloudy
7:51 AM-7.8 °C-13.3 °C65 %1031.2 hPa16.1 kmCalmPartly Cloudy
8:51 AM-5 °C-13.3 °C53 %1031.8 hPa16.1 kmNNW (330°)9.3 km/hPartly Cloudy
9:51 AM-3.3 °C-12.8 °C49 %1032.2 hPa16.1 kmNorth (360°)5.6 km/hScattered Clouds
10:51 AM-2.8 °C-12.8 °C47 %1032.5 hPa16.1 kmCalmScattered Clouds
11:51 AM-1.7 °C-12.2 °C45 %1031.8 hPa16.1 kmSSW (200°)5.6 km/hMostly Cloudy
12:51 PM0 °C-12.8 °C38 %1030.5 hPa16.1 kmCalmMostly Cloudy
1:51 PM1.1 °C-10.6 °C42 %1029.8 hPa16.1 kmCalmMostly Cloudy
2:51 PM1.7 °C-10 °C42 %1029.8 hPa16.1 kmSSW (210°)5.6 km/hMostly Cloudy
3:51 PM1.1 °C-12.2 °C37 %1029.1 hPa16.1 kmSouth (190°)9.3 km/hMostly Cloudy
4:51 PM1.1 °C-11.7 °C38 %1028.8 hPa16.1 kmSouth (190°)7.4 km/hMostly Cloudy
5:51 PM1.1 °C-9.4 °C46 %1029.1 hPa16.1 kmSSE (160°)5.6 km/hMostly Cloudy
6:51 PM0 °C-7.8 °C56 %1029.1 hPa16.1 kmSouth (170°)7.4 km/hMostly Cloudy
7:51 PM0 °C-7.2 °C59 %1029.1 hPa16.1 kmSSE (150°)9.3 km/hOvercast
8:51 PM0 °C-6.7 °C61 %1028.8 hPa16.1 kmCalmOvercast
9:51 PM-0.6 °C-6.1 °C67 %1028.4 hPa16.1 kmSSE (160°)5.6 km/hOvercast
10:51 PM-0.6 °C-6.1 °C67 %1027.4 hPa16.1 kmSouth (180°)7.4 km/hOvercast
11:51 PM0 °C-5.6 °C66 %1027.4 hPa16.1 kmSouth (170°)5.6 km/hOvercast
Hourly data recorded from KEWR, located 0 kilometers away from Staten Island, New York







STORIES FROM OUR PARTNERS